Time,TemperatureF,DewpointF,PressureIn,WindDirection,WindDirectionDegrees,WindSpeedMPH,WindSpeedGustMPH,Humidity,HourlyPrecipIn,Conditions,Clouds,dailyrainin,SoftwareType,DateUTC
2013-03-30 08:04:00,37.8,26.3,30.06,East,95,2.0,2.0,63,0.00,,,0.00,Wunderground v.1.15,2013-03-30 13:04:00,
2013-03-30 08:09:00,37.7,26.6,30.06,SE,129,2.0,3.0,64,0.00,,,0.00,Wunderground v.1.15,2013-03-30 13:09:00,
2013-03-30 08:14:00,37.6,26.5,30.06,ESE,107,2.0,3.0,64,0.00,,,0.00,Wunderground v.1.15,2013-03-30 13:14:00,
2013-03-30 08:24:00,37.8,26.7,30.06,East,86,2.0,2.0,64,0.00,,,0.00,Wunderground v.1.15,2013-03-30 13:24:00,
2013-03-30 08:29:00,38.0,26.9,30.06,East,84,2.0,4.0,64,0.00,,,0.00,Wunderground v.1.15,2013-03-30 13:29:00,
2013-03-30 08:34:00,38.2,26.7,30.06,ESE,104,2.0,4.0,63,0.00,,,0.00,Wunderground v.1.15,2013-03-30 13:34:00,
2013-03-30 08:39:00,38.5,26.6,30.05,ENE,68,2.0,2.0,62,0.00,,,0.00,Wunderground v.1.15,2013-03-30 13:39:00,
2013-03-30 08:44:00,38.7,26.8,30.05,SSE,153,2.0,2.0,62,0.00,,,0.00,Wunderground v.1.15,2013-03-30 13:44:00,
2013-03-30 08:54:00,39.1,26.8,30.05,East,95,2.0,3.0,61,0.00,,,0.00,Wunderground v.1.15,2013-03-30 13:54:00,
2013-03-30 08:59:00,39.4,27.1,30.05,ESE,110,2.0,3.0,61,0.00,,,0.00,Wunderground v.1.15,2013-03-30 13:59:00,
2013-03-30 09:09:00,40.7,27.9,30.04,ESE,114,2.0,2.0,60,0.00,,,0.00,Wunderground v.1.15,2013-03-30 14:09:00,
2013-03-30 09:14:00,41.4,28.1,30.04,SE,139,2.0,2.0,59,0.00,,,0.00,Wunderground v.1.15,2013-03-30 14:14:00,
2013-03-30 09:19:00,42.2,28.5,30.04,ENE,70,1.0,2.0,58,0.00,,,0.00,Wunderground v.1.15,2013-03-30 14:19:00,
2013-03-30 09:24:00,42.7,28.5,30.04,West,267,2.0,2.0,57,0.00,,,0.00,Wunderground v.1.15,2013-03-30 14:24:00,
2013-03-30 09:29:00,43.0,28.8,30.03,ENE,77,2.0,2.0,57,0.00,,,0.00,Wunderground v.1.15,2013-03-30 14:29:00,
2013-03-30 09:34:00,43.2,29.0,30.03,NE,47,3.0,3.0,57,0.00,,,0.00,Wunderground v.1.15,2013-03-30 14:34:00,
2013-03-30 09:39:00,43.4,29.2,30.03,SW,222,3.0,3.0,57,0.00,,,0.00,Wunderground v.1.15,2013-03-30 14:39:00,
2013-03-30 09:44:00,43.5,29.3,30.03,ESE,116,3.0,3.0,57,0.00,,,0.00,Wunderground v.1.15,2013-03-30 14:44:00,
2013-03-30 09:49:00,43.4,29.2,30.02,SSW,193,3.0,3.0,57,0.00,,,0.00,Wunderground v.1.15,2013-03-30 14:49:00,
2013-03-30 09:54:00,43.4,29.6,30.02,SE,130,3.0,3.0,58,0.00,,,0.00,Wunderground v.1.15,2013-03-30 14:54:00,
2013-03-30 09:59:00,43.3,29.9,30.02,SW,233,3.0,6.0,59,0.00,,,0.00,Wunderground v.1.15,2013-03-30 14:59:00,
2013-03-30 10:09:00,43.2,30.2,30.01,East,98,3.0,5.0,60,0.00,,,0.00,Wunderground v.1.15,2013-03-30 15:09:00,
2013-03-30 10:14:00,43.1,30.1,30.01,South,191,4.0,5.0,60,0.00,,,0.00,Wunderground v.1.15,2013-03-30 15:14:00,
2013-03-30 10:19:00,43.1,30.6,30.01,ESE,102,3.0,3.0,61,0.00,,,0.00,Wunderground v.1.15,2013-03-30 15:19:00,
2013-03-30 10:24:00,43.2,31.1,30.01,WSW,246,2.0,3.0,62,0.00,,,0.00,Wunderground v.1.15,2013-03-30 15:24:00,
2013-03-30 10:29:00,43.3,30.7,30.01,East,80,2.0,2.0,61,0.00,,,0.00,Wunderground v.1.15,2013-03-30 15:29:00,
2013-03-30 10:39:00,43.6,31.0,30.01,SE,131,2.0,2.0,61,0.00,,,0.00,Wunderground v.1.15,2013-03-30 15:39:00,
2013-03-30 10:44:00,43.9,31.7,30.01,North,8,2.0,2.0,62,0.00,,,0.00,Wunderground v.1.15,2013-03-30 15:44:00,
2013-03-30 10:54:00,44.4,32.2,30.01,East,94,1.0,2.0,62,0.00,,,0.00,Wunderground v.1.15,2013-03-30 15:54:00,
2013-03-30 10:59:00,44.8,32.6,30.01,WNW,290,1.0,3.0,62,0.00,,,0.00,Wunderground v.1.15,2013-03-30 15:59:00,
2013-03-30 11:09:00,45.3,33.0,30.01,ESE,106,1.0,1.0,62,0.00,,,0.00,Wunderground v.1.15,2013-03-30 16:09:00,
2013-03-30 11:14:00,45.5,32.8,30.00,East,89,1.0,1.0,61,0.00,,,0.00,Wunderground v.1.15,2013-03-30 16:14:00,
2013-03-30 11:19:00,45.6,32.9,30.00,SE,131,1.0,1.0,61,0.00,,,0.00,Wunderground v.1.15,2013-03-30 16:19:00,
2013-03-30 11:24:00,46.1,33.8,30.00,NNE,18,1.0,1.0,62,0.00,,,0.00,Wunderground v.1.15,2013-03-30 16:24:00,
2013-03-30 11:29:00,46.5,33.8,30.00,East,81,1.0,1.0,61,0.00,,,0.00,Wunderground v.1.15,2013-03-30 16:29:00,
2013-03-30 11:34:00,47.0,33.8,29.99,ENE,75,1.0,2.0,60,0.00,,,0.00,Wunderground v.1.15,2013-03-30 16:34:00,
2013-03-30 11:44:00,47.8,34.2,29.99,SE,146,2.0,3.0,59,0.00,,,0.00,Wunderground v.1.15,2013-03-30 16:44:00,
2013-03-30 11:54:00,48.8,35.1,29.99,ESE,110,2.0,3.0,59,0.00,,,0.00,Wunderground v.1.15,2013-03-30 16:54:00,
2013-03-30 11:59:00,48.8,35.1,29.99,South,170,2.0,2.0,59,0.00,,,0.00,Wunderground v.1.15,2013-03-30 16:59:00,
2013-03-30 12:09:00,48.2,35.0,29.98,NE,52,1.0,1.0,60,0.00,,,0.00,Wunderground v.1.15,2013-03-30 17:09:00,
2013-03-30 12:14:00,48.2,35.4,29.98,WNW,287,2.0,2.0,61,0.00,,,0.00,Wunderground v.1.15,2013-03-30 17:14:00,
2013-03-30 12:19:00,48.3,35.5,29.98,East,96,2.0,2.0,61,0.00,,,0.00,Wunderground v.1.15,2013-03-30 17:19:00,
2013-03-30 12:24:00,48.4,36.0,29.97,West,273,3.0,3.0,62,0.00,,,0.00,Wunderground v.1.15,2013-03-30 17:24:00,
2013-03-30 12:29:00,48.7,36.3,29.97,WSW,242,3.0,3.0,62,0.00,,,0.00,Wunderground v.1.15,2013-03-30 17:29:00,
2013-03-30 12:39:00,49.5,37.0,29.97,WNW,287,3.0,3.0,62,0.00,,,0.00,Wunderground v.1.15,2013-03-30 17:39:00,
2013-03-30 12:44:00,50.2,37.3,29.96,SE,131,3.0,3.0,61,0.00,,,0.00,Wunderground v.1.15,2013-03-30 17:44:00,
2013-03-30 12:54:00,51.3,37.4,29.95,ESE,107,2.0,3.0,59,0.00,,,0.00,Wunderground v.1.15,2013-03-30 17:54:00,
2013-03-30 12:59:00,51.6,37.3,29.95,North,360,2.0,2.0,58,0.00,,,0.00,Wunderground v.1.15,2013-03-30 17:59:00,
2013-03-30 13:09:00,52.1,37.8,29.94,ESE,108,3.0,3.0,58,0.00,,,0.00,Wunderground v.1.15,2013-03-30 18:09:00,
2013-03-30 13:14:00,52.7,38.3,29.93,NNE,22,3.0,5.0,58,0.00,,,0.00,Wunderground v.1.15,2013-03-30 18:14:00,
2013-03-30 13:19:00,52.9,38.1,29.93,East,86,3.0,3.0,57,0.00,,,0.00,Wunderground v.1.15,2013-03-30 18:19:00,
2013-03-30 13:29:00,53.1,37.8,29.93,West,274,4.0,4.0,56,0.00,,,0.00,Wunderground v.1.15,2013-03-30 18:29:00,
2013-03-30 13:34:00,52.6,37.8,29.93,WSW,257,3.0,4.0,57,0.00,,,0.00,Wunderground v.1.15,2013-03-30 18:34:00,
2013-03-30 13:39:00,52.0,38.1,29.93,SE,139,3.0,3.0,59,0.00,,,0.00,Wunderground v.1.15,2013-03-30 18:39:00,
2013-03-30 13:44:00,51.8,37.5,29.93,SW,231,3.0,4.0,58,0.00,,,0.00,Wunderground v.1.15,2013-03-30 18:44:00,
2013-03-30 13:49:00,51.6,36.9,29.92,South,177,5.0,5.0,57,0.00,,,0.00,Wunderground v.1.15,2013-03-30 18:49:00,
2013-03-30 13:59:00,51.6,37.3,29.92,SSW,210,5.0,5.0,58,0.00,,,0.00,Wunderground v.1.15,2013-03-30 18:59:00,
2013-03-30 14:09:00,52.1,37.3,29.91,SSE,167,4.0,4.0,57,0.00,,,0.00,Wunderground v.1.15,2013-03-30 19:09:00,
2013-03-30 14:14:00,52.1,37.3,29.91,WSW,241,4.0,4.0,57,0.00,,,0.00,Wunderground v.1.15,2013-03-30 19:14:00,
2013-03-30 14:19:00,52.0,37.7,29.91,SSW,207,4.0,4.0,58,0.00,,,0.00,Wunderground v.1.15,2013-03-30 19:19:00,
2013-03-30 14:24:00,52.3,38.0,29.91,SW,229,3.0,4.0,58,0.00,,,0.00,Wunderground v.1.15,2013-03-30 19:24:00,
2013-03-30 14:29:00,52.4,38.0,29.91,SSE,150,4.0,4.0,58,0.00,,,0.00,Wunderground v.1.15,2013-03-30 19:29:00,
2013-03-30 14:39:00,52.4,37.6,29.90,SSW,210,4.0,9.0,57,0.00,,,0.00,Wunderground v.1.15,2013-03-30 19:39:00,
2013-03-30 14:44:00,52.1,37.3,29.90,WSW,245,5.0,9.0,57,0.00,,,0.00,Wunderground v.1.15,2013-03-30 19:44:00,
2013-03-30 14:54:00,51.7,37.4,29.89,West,259,4.0,4.0,58,0.00,,,0.00,Wunderground v.1.15,2013-03-30 19:54:00,
2013-03-30 14:59:00,51.6,37.7,29.89,East,85,5.0,5.0,59,0.00,,,0.00,Wunderground v.1.15,2013-03-30 19:59:00,
2013-03-30 15:09:00,51.1,38.1,29.89,North,1,4.0,4.0,61,0.00,,,0.00,Wunderground v.1.15,2013-03-30 20:09:00,
2013-03-30 15:14:00,50.9,38.3,29.89,ENE,77,2.0,4.0,62,0.00,,,0.00,Wunderground v.1.15,2013-03-30 20:14:00,
2013-03-30 15:19:00,50.9,38.3,29.89,SW,215,2.0,7.0,62,0.00,,,0.00,Wunderground v.1.15,2013-03-30 20:19:00,
2013-03-30 15:24:00,50.8,38.2,29.89,SE,139,3.0,7.0,62,0.00,,,0.00,Wunderground v.1.15,2013-03-30 20:24:00,
2013-03-30 15:34:00,51.1,38.5,29.88,South,184,3.0,3.0,62,0.00,,,0.00,Wunderground v.1.15,2013-03-30 20:34:00,
2013-03-30 15:39:00,51.2,38.2,29.88,SW,231,3.0,5.0,61,0.00,,,0.00,Wunderground v.1.15,2013-03-30 20:39:00,
2013-03-30 15:44:00,51.1,38.1,29.88,SW,214,3.0,5.0,61,0.00,,,0.00,Wunderground v.1.15,2013-03-30 20:44:00,
2013-03-30 15:49:00,51.0,38.4,29.88,SW,233,3.0,3.0,62,0.00,,,0.00,Wunderground v.1.15,2013-03-30 20:49:00,
2013-03-30 15:54:00,51.1,38.5,29.88,WSW,255,4.0,6.0,62,0.00,,,0.00,Wunderground v.1.15,2013-03-30 20:54:00,
2013-03-30 15:59:00,51.1,38.5,29.88,SW,215,4.0,4.0,62,0.00,,,0.00,Wunderground v.1.15,2013-03-30 20:59:00,
2013-03-30 16:09:00,50.8,38.7,29.87,SSW,195,4.0,4.0,63,0.00,,,0.00,Wunderground v.1.15,2013-03-30 21:09:00,
2013-03-30 16:19:00,50.6,39.3,29.87,SSW,198,4.0,5.0,65,0.00,,,0.00,Wunderground v.1.15,2013-03-30 21:19:00,
2013-03-30 16:24:00,50.4,39.1,29.87,WSW,243,4.0,5.0,65,0.00,,,0.00,Wunderground v.1.15,2013-03-30 21:24:00,
2013-03-30 16:29:00,50.2,39.3,29.87,East,91,3.0,3.0,66,0.00,,,0.00,Wunderground v.1.15,2013-03-30 21:29:00,
2013-03-30 16:34:00,50.1,39.6,29.86,WSW,253,3.0,3.0,67,0.00,,,0.00,Wunderground v.1.15,2013-03-30 21:34:00,
2013-03-30 16:44:00,50.2,39.7,29.85,SW,229,3.0,5.0,67,0.00,,,0.00,Wunderground v.1.15,2013-03-30 21:44:00,
2013-03-30 16:49:00,50.2,40.0,29.85,WSW,238,3.0,6.0,68,0.00,,,0.00,Wunderground v.1.15,2013-03-30 21:49:00,
2013-03-30 16:59:00,50.0,40.2,29.85,SW,226,4.0,4.0,69,0.00,,,0.00,Wunderground v.1.15,2013-03-30 21:59:00,
2013-03-30 17:09:00,49.9,40.5,29.85,SW,233,3.0,5.0,70,0.00,,,0.00,Wunderground v.1.15,2013-03-30 22:09:00,
2013-03-30 17:19:00,49.8,40.8,29.84,WSW,250,3.0,3.0,71,0.00,,,0.00,Wunderground v.1.15,2013-03-30 22:19:00,
2013-03-30 17:24:00,49.7,41.0,29.84,SW,219,2.0,3.0,72,0.00,,,0.00,Wunderground v.1.15,2013-03-30 22:24:00,
2013-03-30 17:34:00,49.5,41.2,29.84,SSE,152,4.0,4.0,73,0.00,,,0.00,Wunderground v.1.15,2013-03-30 22:34:00,
2013-03-30 17:39:00,49.3,41.0,29.84,SW,214,3.0,3.0,73,0.00,,,0.00,Wunderground v.1.15,2013-03-30 22:39:00,
2013-03-30 17:44:00,49.1,40.8,29.84,WSW,248,2.0,3.0,73,0.00,,,0.00,Wunderground v.1.15,2013-03-30 22:44:00,
2013-03-30 17:49:00,48.9,41.0,29.84,SW,218,2.0,4.0,74,0.00,,,0.00,Wunderground v.1.15,2013-03-30 22:49:00,
2013-03-30 17:54:00,48.7,40.8,29.84,West,262,2.0,4.0,74,0.00,,,0.00,Wunderground v.1.15,2013-03-30 22:54:00,
2013-03-30 18:04:00,48.4,40.8,29.84,SE,145,1.0,1.0,75,0.00,,,0.00,Wunderground v.1.15,2013-03-30 23:04:00,
2013-03-30 18:09:00,48.3,40.7,29.84,NE,49,0.0,0.0,75,0.00,,,0.00,Wunderground v.1.15,2013-03-30 23:09:00,
2013-03-30 18:14:00,48.2,40.6,29.83,NE,49,0.0,0.0,75,0.00,,,0.00,Wunderground v.1.15,2013-03-30 23:14:00,
2013-03-30 18:19:00,48.0,40.8,29.84,WSW,246,0.0,1.0,76,0.00,,,0.00,Wunderground v.1.15,2013-03-30 23:19:00,
2013-03-30 18:24:00,47.9,40.7,29.84,WNW,282,1.0,2.0,76,0.00,,,0.00,Wunderground v.1.15,2013-03-30 23:24:00,
2013-03-30 18:29:00,47.9,40.4,29.84,SW,223,1.0,2.0,75,0.00,,,0.00,Wunderground v.1.15,2013-03-30 23:29:00,
2013-03-30 18:39:00,47.9,40.7,29.85,WSW,253,1.0,2.0,76,0.00,,,0.00,Wunderground v.1.15,2013-03-30 23:39:00,
2013-03-30 18:49:00,48.1,40.9,29.84,SSW,198,2.0,3.0,76,0.00,,,0.00,Wunderground v.1.15,2013-03-30 23:49:00,
2013-03-30 18:54:00,48.0,40.8,29.84,WSW,256,2.0,3.0,76,0.00,,,0.00,Wunderground v.1.15,2013-03-30 23:54:00,
2013-03-30 18:59:00,47.9,41.0,29.84,SSW,204,2.0,3.0,77,0.00,,,0.00,Wunderground v.1.15,2013-03-30 23:59:00,
2013-03-30 19:09:00,47.4,41.2,29.84,SSE,155,3.0,3.0,79,0.00,,,0.00,Wunderground v.1.15,2013-03-31 00:09:00,
2013-03-30 19:14:00,47.2,41.3,29.84,SW,233,2.0,3.0,80,0.00,,,0.00,Wunderground v.1.15,2013-03-31 00:14:00,
2013-03-30 19:19:00,46.9,41.4,29.84,WSW,252,2.0,2.0,81,0.00,,,0.00,Wunderground v.1.15,2013-03-31 00:19:00,
2013-03-30 19:29:00,46.4,41.2,29.83,SW,221,2.0,2.0,82,0.00,,,0.01,Wunderground v.1.15,2013-03-31 00:29:00,
2013-03-30 19:34:00,46.4,41.2,29.83,SSW,212,2.0,6.0,82,0.00,,,0.01,Wunderground v.1.15,2013-03-31 00:34:00,
2013-03-30 19:39:00,46.5,41.0,29.83,SW,231,3.0,4.0,81,0.00,,,0.01,Wunderground v.1.15,2013-03-31 00:39:00,
2013-03-30 19:44:00,46.4,40.9,29.83,SW,231,3.0,8.0,81,0.00,,,0.01,Wunderground v.1.15,2013-03-31 00:44:00,
2013-03-30 19:49:00,46.4,40.9,29.83,West,260,4.0,4.0,81,0.00,,,0.01,Wunderground v.1.15,2013-03-31 00:49:00,
2013-03-30 19:54:00,46.3,41.1,29.83,SW,232,3.0,5.0,82,0.00,,,0.01,Wunderground v.1.15,2013-03-31 00:54:00,
2013-03-30 19:59:00,46.1,41.2,29.82,WSW,245,3.0,3.0,83,0.00,,,0.01,Wunderground v.1.15,2013-03-31 00:59:00,
2013-03-30 20:09:00,45.9,41.0,29.83,SW,233,4.0,5.0,83,0.00,,,0.01,Wunderground v.1.15,2013-03-31 01:09:00,
2013-03-30 20:14:00,45.8,41.2,29.83,SW,231,4.0,5.0,84,0.00,,,0.01,Wunderground v.1.15,2013-03-31 01:14:00,
2013-03-30 20:24:00,45.5,41.3,29.83,NW,308,4.0,4.0,85,0.00,,,0.01,Wunderground v.1.15,2013-03-31 01:24:00,
2013-03-30 20:29:00,45.2,41.3,29.83,West,270,3.0,4.0,86,0.00,,,0.01,Wunderground v.1.15,2013-03-31 01:29:00,
2013-03-30 20:34:00,45.2,41.6,29.83,SW,222,3.0,8.0,87,0.00,,,0.01,Wunderground v.1.15,2013-03-31 01:34:00,
2013-03-30 20:39:00,45.0,41.7,29.83,WSW,243,4.0,4.0,88,0.00,,,0.01,Wunderground v.1.15,2013-03-31 01:39:00,
2013-03-30 20:44:00,45.0,41.7,29.83,SSW,207,4.0,4.0,88,0.00,,,0.01,Wunderground v.1.15,2013-03-31 01:44:00,
2013-03-30 20:54:00,44.8,41.8,29.82,SSE,150,3.0,4.0,89,0.00,,,0.01,Wunderground v.1.15,2013-03-31 01:54:00,
2013-03-30 21:04:00,44.7,41.7,29.82,NW,311,4.0,6.0,89,0.00,,,0.01,Wunderground v.1.15,2013-03-31 02:04:00,
2013-03-30 21:09:00,44.6,41.8,29.82,West,271,4.0,4.0,90,0.00,,,0.01,Wunderground v.1.15,2013-03-31 02:09:00,
2013-03-30 21:14:00,44.5,41.7,29.82,SW,233,3.0,4.0,90,0.00,,,0.01,Wunderground v.1.15,2013-03-31 02:14:00,
2013-03-30 21:24:00,44.4,41.7,29.82,WSW,240,3.0,3.0,90,0.00,,,0.01,Wunderground v.1.15,2013-03-31 02:24:00,
2013-03-30 21:34:00,44.5,41.7,29.82,WSW,238,4.0,7.0,90,0.00,,,0.01,Wunderground v.1.15,2013-03-31 02:34:00,
2013-03-30 21:39:00,44.5,41.7,29.82,West,264,4.0,4.0,90,0.00,,,0.01,Wunderground v.1.15,2013-03-31 02:39:00,
2013-03-30 21:44:00,44.3,41.6,29.82,SW,215,3.0,4.0,90,0.00,,,0.01,Wunderground v.1.15,2013-03-31 02:44:00,
2013-03-30 21:49:00,44.3,41.6,29.82,West,260,3.0,3.0,90,0.00,,,0.01,Wunderground v.1.15,2013-03-31 02:49:00,
2013-03-30 21:54:00,44.2,41.5,29.82,SSW,212,3.0,3.0,90,0.00,,,0.01,Wunderground v.1.15,2013-03-31 02:54:00,
2013-03-30 21:59:00,44.2,41.7,29.82,SW,231,3.0,4.0,91,0.00,,,0.01,Wunderground v.1.15,2013-03-31 02:59:00,
2013-03-30 22:09:00,44.0,41.5,29.82,West,262,2.0,2.0,91,0.00,,,0.01,Wunderground v.1.15,2013-03-31 03:09:00,
2013-03-30 22:14:00,43.9,41.4,29.82,WSW,246,3.0,3.0,91,0.00,,,0.01,Wunderground v.1.15,2013-03-31 03:14:00,
2013-03-30 22:19:00,43.9,41.4,29.81,SW,235,3.0,5.0,91,0.00,,,0.01,Wunderground v.1.15,2013-03-31 03:19:00,
2013-03-30 22:24:00,43.9,41.7,29.82,SW,223,4.0,5.0,92,0.00,,,0.01,Wunderground v.1.15,2013-03-31 03:24:00,
2013-03-30 22:29:00,43.8,41.6,29.81,West,278,3.0,3.0,92,0.00,,,0.01,Wunderground v.1.15,2013-03-31 03:29:00,
2013-03-30 22:34:00,43.8,41.6,29.81,SW,233,4.0,4.0,92,0.00,,,0.01,Wunderground v.1.15,2013-03-31 03:34:00,
2013-03-30 22:44:00,43.8,41.6,29.81,WSW,253,4.0,4.0,92,0.00,,,0.01,Wunderground v.1.15,2013-03-31 03:44:00,
2013-03-30 22:54:00,43.5,41.3,29.81,SW,230,3.0,3.0,92,0.00,,,0.01,Wunderground v.1.15,2013-03-31 03:54:00,
2013-03-30 22:59:00,43.5,41.6,29.81,WSW,257,3.0,4.0,93,0.00,,,0.01,Wunderground v.1.15,2013-03-31 03:59:00,
2013-03-30 23:04:00,43.5,41.6,29.81,WSW,243,3.0,4.0,93,0.00,,,0.01,Wunderground v.1.15,2013-03-31 04:04:00,
2013-03-30 23:09:00,43.5,41.6,29.81,WSW,243,3.0,3.0,93,0.00,,,0.01,Wunderground v.1.15,2013-03-31 04:09:00,
2013-03-30 23:14:00,43.4,41.5,29.81,WSW,241,2.0,3.0,93,0.00,,,0.01,Wunderground v.1.15,2013-03-31 04:14:00,
2013-03-30 23:19:00,43.4,41.5,29.81,SW,232,2.0,2.0,93,0.00,,,0.01,Wunderground v.1.15,2013-03-31 04:19:00,
2013-03-30 23:24:00,43.4,41.8,29.81,SW,235,2.0,4.0,94,0.00,,,0.01,Wunderground v.1.15,2013-03-31 04:24:00,
2013-03-30 23:29:00,43.4,41.8,29.81,West,270,2.0,2.0,94,0.00,,,0.01,Wunderground v.1.15,2013-03-31 04:29:00,
2013-03-30 23:34:00,43.3,41.7,29.81,West,280,3.0,6.0,94,0.00,,,0.01,Wunderground v.1.15,2013-03-31 04:34:00,
2013-03-30 23:39:00,43.3,41.7,29.81,WSW,257,3.0,3.0,94,0.00,,,0.01,Wunderground v.1.15,2013-03-31 04:39:00,
2013-03-30 23:44:00,43.2,41.6,29.81,WSW,252,3.0,3.0,94,0.00,,,0.01,Wunderground v.1.15,2013-03-31 04:44:00,
2013-03-30 23:54:00,42.9,41.3,29.81,WSW,257,2.0,2.0,94,0.00,,,0.01,Wunderground v.1.15,2013-03-31 04:54:00,
2013-03-30 23:59:00,42.9,41.3,29.81,West,278,2.0,2.0,94,0.00,,,0.01,Wunderground v.1.15,2013-03-31 04:59:00,